[TLELIST] Archives

 

Current TLEs

September 2nd 2007 PDT

HST 1 20580U 90037B 07244.84353059 .00000339 00000-0 13386-4 0 9516 2 20580 028.4674 050.2400 0003968 191.2556 168.7946 15.00273828751486 ISS (ZARYA) 1 25544U 98067A 07245.35264343 .00011575 00000-0 75360-4 0 9048 2 25544 051.6358 065.6539 0008452 320.9594 109.9083 15.76438112502954 CXO 1 25867U 99040B 07244.33333333 .00000243 00000-0 10000-3 0 1075 2 25867 062.2828 087.6120 6343106 282.9112 356.9693 00.37807132 2532 ____________________________________________________________________ These 2-Line ...Continue Reading

Current TLEs

September 1st 2007 PDT

HST 1 20580U 90037B 07243.57958164 .00000334 00000-0 13066-4 0 9502 2 20580 028.4673 058.4831 0003989 179.7104 180.3486 15.00273329751290 ISS (ZARYA) 1 25544U 98067A 07244.53398294 .00012195 00000-0 79238-4 0 8990 2 25544 051.6354 069.8724 0008339 317.3222 144.3989 15.76420517502828 CXO 1 25867U 99040B 07244.33333333 .00000243 00000-0 10000-3 0 1075 2 25867 062.2828 087.6120 6343106 282.9112 356.9693 00.37807132 2532 ____________________________________________________________________ These 2-Line ...Continue Reading

Current TLEs

August 31st 2007 PDT

HST 1 20580U 90037B 07241.84996683 .00000325 00000-0 12318-4 0 9495 2 20580 028.4673 069.7592 0003978 161.1626 198.9110 15.00272658751036 ISS (ZARYA) 1 25544U 98067A 07243.51841635 .00014255 00000-0 91969-4 0 8926 2 25544 051.6348 075.1071 0008484 311.2752 143.1703 15.76403194502663 CXO 1 25867U 99040B 07241.70833333 +.00000312 +00000-0 +00000-0 0 01037 2 25867 062.2596 087.6929 6341209 282.9081 359.7119 00.37808800002535 ____________________________________________________________________ These 2-Line ...Continue Reading

Current TLEs

August 30th 2007 PDT

HST 1 20580U 90037B 07241.84996683 .00000325 00000-0 12318-4 0 9495 2 20580 028.4673 069.7592 0003978 161.1626 198.9110 15.00272658751036 ISS (ZARYA) 1 25544U 98067A 07242.12441207 .00015318 00000-0 98674-4 0 8867 2 25544 051.6354 082.2921 0008347 306.5968 151.5684 15.76366005502443 CXO 1 25867U 99040B 07241.70833333 +.00000312 +00000-0 +00000-0 0 01037 2 25867 062.2596 087.6929 6341209 282.9081 359.7119 00.37808800002535 ____________________________________________________________________ These 2-Line ...Continue Reading

Current TLEs

August 29th 2007 PDT

HST 1 20580U 90037B 07239.92078121 +.00000297 +00000-0 +10128-4 0 09494 2 20580 028.4673 082.3467 0003975 141.7909 218.2962 15.00271867750742 ISS (ZARYA) 1 25544U 98067A 07241.48450932 .00014744 00000-0 95233-4 0 8804 2 25544 051.6354 085.5891 0008196 304.0450 120.2932 15.76343987502348 CXO 1 25867U 99040B 07236.54810494 .00000246 00000-0 10000-3 0 1069 2 25867 062.2272 087.8201 6332008 282.9445 017.3778 00.37804656 2513 ____________________________________________________________________ These 2-Line ...Continue Reading

Current TLEs

August 28th 2007 PDT

HST 1 20580U 90037B 07239.85425759 .00000290 00000-0 96364-5 0 9477 2 20580 028.4673 082.7804 0003962 141.1168 218.9710 15.00271797750737 ISS (ZARYA) 1 25544U 98067A 07240.47050058 .00012723 00000-0 82907-4 0 8738 2 25544 051.6352 090.8149 0008144 299.5313 126.6153 15.76304255502182 CXO 1 25867U 99040B 07239.08333333 .00000292 00000-0 00000+0 0 1047 2 25867 062.2420 087.7600 6336042 282.9058 002.4209 00.37806137 2523 ____________________________________________________________________ These 2-Line ...Continue Reading

Current TLEs

August 27th 2007 PDT

HST 1 20580U 90037B 07237.92506874 +.00000252 +00000-0 +66791-5 0 09638 2 20580 028.4675 095.3614 0003848 122.7040 237.3919 15.00271124750443 ISS (ZARYA) 1 25544U 98067A 07239.45484308 .00013250 00000-0 86269-4 0 8677 2 25544 051.6362 096.0500 0008075 296.7595 121.9841 15.76277054502027 CXO 1 25867U 99040B 07239.08333333 .00000292 00000-0 00000+0 0 1047 2 25867 062.2420 087.7600 6336042 282.9058 002.4209 00.37806137 2523 ____________________________________________________________________ These 2-Line ...Continue Reading

Current TLEs

August 26th 2007 PDT

HST 1 20580U 90037B 07237.99159252 .00000257 00000-0 70025-5 0 9460 2 20580 028.4674 094.9275 0003857 123.2596 236.8364 15.00271167750458 ISS (ZARYA) 1 25544U 98067A 07238.44063326 .00010746 00000-0 70864-4 0 8590 2 25544 051.6361 101.2744 0008066 290.9597 128.7127 15.76244555501866 CXO 1 25867U 99040B 07239.08333333 .00000292 00000-0 00000+0 0 1047 2 25867 062.2420 087.7600 6336042 282.9058 002.4209 00.37806137 2523 ____________________________________________________________________ These 2-Line ...Continue Reading

Current TLEs

August 25th 2007 PDT

HST 1 20580U 90037B 07236.86068826 .00000239 00000-0 56450-5 0 9456 2 20580 028.4675 102.3033 0003766 111.7358 248.3630 15.00270801750281 ISS (ZARYA) 1 25544U 98067A 07237.48856757 .00011016 00000-0 72604-4 0 8541 2 25544 051.6360 106.1807 0008020 286.8292 126.7536 15.76223939501714 CXO 1 25867U 99040B 07236.37500000 .00000243 00000-0 00000+0 0 1038 2 25867 062.2272 087.8198 6330925 282.9341 353.7368 00.37804370 2514 ____________________________________________________________________ These 2-Line ...Continue Reading

Current TLEs

August 24th 2007 PDT

HST 1 20580U 90037B 07235.72978304 .00000290 00000-0 96584-5 0 9449 2 20580 028.4673 109.6773 0003754 099.1977 260.9037 15.00270904750110 ISS (ZARYA) 1 25544U 98067A 07236.22846339 .00011130 00000-0 73407-4 0 8467 2 25544 051.6358 112.6735 0008016 282.9306 175.5430 15.76194975501511 CXO 1 25867U 99040B 07236.37500000 .00000243 00000-0 00000+0 0 1038 2 25867 062.2272 087.8198 6330925 282.9341 353.7368 00.37804370 2514 ____________________________________________________________________ These 2-Line ...Continue Reading
  • This mailing list is a public mailing list - anyone may join or leave, at any time.
  • This mailing list is announce-only.

International Space Station (ISS) / Hubble Space Telescope (HST) / Chandra X-Ray Observatory Orbital Data via EMAIL

Privacy Policy:

Private list